METAR Formatted Surface Weather Observation
Issued by NWS

Home | Current Version | Previous Version | Text Only | Print | Product List | Glossary On
Versions: 1 2 3 4 5 6 7 8 9 10 11 12 13 14 15 16 17 18 19 20
000
SAUS43 KUNR 280258
MTRD07
METAR KD07 280256Z AUTO 18011KT 20/16 A2998 RMK AO1 SLP141 T02000156
53008



USA.gov is the U.S. government's official web portal to all federal, state and local government web resources and services.